User: anonymous   Login
Location: Marseilles
(40.7010°N, 83.3930°W)
Time: 06:08:22
(UTC-04:00)
Language:

Cosmos 1459 Rocket - Orbit

View from above orbital plane
View from above orbital plane
View from above satellite
View from above satellite

Ground track
Ground track

The orbit data is extracted from the following two-line orbital elements,

1 14059U 83042B   16273.14347668 -.00000037  00000-0 -51245-4 0  9997
2 14059  82.9689 255.6695 0041174 280.4395 129.5562 13.78565435679794
Epoch (UTC): 29 September 2016 03:26:36
Eccentricity: 0.0041174
inclination: 82.9689°
perigee height: 939 km
apogee height: 999 km
right ascension of ascending node: 255.6695°
argument of perigee: 280.4395°
revolutions per day: 13.78565435
mean anomaly at epoch: 129.5562°
orbit number at epoch: 67979

The dashed part of the orbit path shows where the satellite is in the earth's shadow,  

DLR